WAT2950 EBCI-LEAS

Flight info

Callsign WAT2950
Flight time N/A
Altitude 31000
Route CIV N872 LESDO DCT KOVIN/N0466F330 DCT NIDUV DCT KIHVI UN872 ERIGA DCT FUJTI DCT ATLEN/N0424F230 N872 DEVAR
Aircraft B738/M-SDE2E3FGHIRWXY/LB1

Departure

Time 2026-05-08 19:45
Airport Brussels South Charleroi Airport (EBCI)

Arrival

Time N/A
Airport Asturias Airport (LEAS)
Time Latitude Longitude Altitude Speed Heading
2026-05-08 19:14 50.46924 4.47289 0 ft 0 kts 335°
2026-05-08 19:30 50.46915 4.47296 612 ft 2 kts 330°
2026-05-08 19:30 50.46901 4.47309 627 ft 2 kts 326°
2026-05-08 19:31 50.46888 4.47325 617 ft 2 kts 306°
2026-05-08 19:31 50.46883 4.47349 623 ft 2 kts 253°
2026-05-08 19:31 50.46886 4.47361 621 ft 0 kts 244°
2026-05-08 19:39 50.46881 4.47348 626 ft 2 kts 233°
2026-05-08 19:39 50.46829 4.47334 612 ft 14 kts 162°
2026-05-08 19:39 50.46748 4.47283 616 ft 14 kts 242°
2026-05-08 19:39 50.46707 4.47144 620 ft 14 kts 245°
2026-05-08 19:40 50.46660 4.46983 615 ft 19 kts 245°
2026-05-08 19:40 50.46597 4.46763 619 ft 24 kts 243°
2026-05-08 19:40 50.46526 4.46521 619 ft 24 kts 244°
2026-05-08 19:40 50.46459 4.46292 616 ft 23 kts 245°
2026-05-08 19:41 50.46394 4.46070 616 ft 22 kts 245°
2026-05-08 19:41 50.46331 4.45854 614 ft 21 kts 245°
2026-05-08 19:41 50.46270 4.45644 616 ft 21 kts 245°
2026-05-08 19:41 50.46211 4.45441 614 ft 20 kts 245°
2026-05-08 19:42 50.46154 4.45246 615 ft 20 kts 245°
2026-05-08 19:42 50.46098 4.45055 615 ft 19 kts 245°
2026-05-08 19:42 50.46045 4.44870 617 ft 18 kts 246°
2026-05-08 19:42 50.45987 4.44668 623 ft 22 kts 245°
2026-05-08 19:43 50.45920 4.44455 622 ft 22 kts 237°
2026-05-08 19:43 50.45833 4.44274 619 ft 17 kts 232°
2026-05-08 19:43 50.45760 4.44127 619 ft 17 kts 232°
2026-05-08 19:43 50.45702 4.44010 625 ft 7 kts 229°
2026-05-08 19:44 50.45655 4.43990 617 ft 9 kts 159°
2026-05-08 19:44 50.45655 4.44146 622 ft 30 kts 66°
2026-05-08 19:44 50.45840 4.44780 619 ft 97 kts 65°
2026-05-08 19:44 50.46205 4.46030 617 ft 153 kts 65°
2026-05-08 19:45 50.46708 4.47635 1073 ft 164 kts 63°
2026-05-08 19:45 50.47341 4.49129 1799 ft 169 kts 40°
2026-05-08 19:45 50.48420 4.49872 2498 ft 176 kts 28°
2026-05-08 19:45 50.49296 4.51323 2764 ft 198 kts 62°
2026-05-08 19:46 50.50069 4.53286 2956 ft 223 kts 56°
2026-05-08 19:46 50.51014 4.55340 3176 ft 246 kts 54°
2026-05-08 19:46 50.53252 4.59678 4555 ft 263 kts 38°
2026-05-08 19:47 50.54940 4.60816 5314 ft 269 kts
2026-05-08 19:47 50.56802 4.60545 6100 ft 273 kts 339°
2026-05-08 19:47 50.58379 4.58946 6904 ft 272 kts 311°
2026-05-08 19:47 50.59298 4.56376 7654 ft 273 kts 283°
2026-05-08 19:48 50.59490 4.53408 8405 ft 275 kts 269°
2026-05-08 19:48 50.59430 4.50425 9160 ft 278 kts 266°
2026-05-08 19:48 50.59325 4.47366 9935 ft 281 kts 266°
2026-05-08 19:48 50.59216 4.44267 10521 ft 290 kts 266°
2026-05-08 19:49 50.59105 4.40972 10704 ft 313 kts 266°
2026-05-08 19:49 50.58994 4.37430 10879 ft 335 kts 266°
2026-05-08 19:49 50.58882 4.33656 11042 ft 356 kts 266°
2026-05-08 19:49 50.58767 4.29661 11190 ft 375 kts 266°
2026-05-08 19:50 50.58650 4.25530 11461 ft 388 kts 266°
2026-05-08 19:50 50.58529 4.21257 11984 ft 394 kts 266°
2026-05-08 19:50 50.58406 4.16937 12598 ft 397 kts 266°
2026-05-08 19:50 50.58281 4.12585 13194 ft 400 kts 266°
2026-05-08 19:51 50.58154 4.08189 13774 ft 404 kts 266°
2026-05-08 19:51 50.58025 4.03785 14288 ft 408 kts 266°
2026-05-08 19:51 50.57891 3.99275 14849 ft 410 kts 266°
2026-05-08 19:51 50.57755 3.94786 15406 ft 412 kts 266°
2026-05-08 19:52 50.57570 3.90337 15940 ft 414 kts 261°
2026-05-08 19:52 50.56660 3.86043 16402 ft 417 kts 240°
2026-05-08 19:52 50.54884 3.82444 16935 ft 419 kts 223°
2026-05-08 19:52 50.52507 3.79786 17430 ft 423 kts 206°
2026-05-08 19:53 50.49809 3.77921 17936 ft 425 kts 203°
2026-05-08 19:53 50.47066 3.76131 18345 ft 430 kts 202°
2026-05-08 19:53 50.44289 3.74316 18743 ft 433 kts 203°
2026-05-08 19:53 50.41508 3.72466 19141 ft 436 kts 204°
2026-05-08 19:54 50.38745 3.70598 19507 ft 440 kts 204°
2026-05-08 19:54 50.35929 3.68684 19861 ft 444 kts 204°
2026-05-08 19:54 50.33087 3.66752 20206 ft 447 kts 204°
2026-05-08 19:54 50.30216 3.64807 20571 ft 451 kts 204°
2026-05-08 19:55 50.27332 3.62858 20946 ft 453 kts 204°
2026-05-08 19:55 50.24428 3.60895 21302 ft 456 kts 204°
2026-05-08 19:55 50.21502 3.58920 21639 ft 459 kts 204°
2026-05-08 19:55 50.18561 3.56938 21955 ft 463 kts 204°
2026-05-08 19:56 50.15592 3.54945 22262 ft 466 kts 204°
2026-05-08 19:56 50.12598 3.52941 22565 ft 470 kts 204°
2026-05-08 19:56 50.09585 3.50927 22872 ft 473 kts 204°
2026-05-08 19:56 50.06594 3.48929 23161 ft 476 kts 204°
2026-05-08 19:57 50.03542 3.46894 23449 ft 479 kts 204°
2026-05-08 19:57 50.00472 3.44848 23698 ft 482 kts 204°
2026-05-08 19:57 49.97441 3.42598 23920 ft 484 kts 212°
2026-05-08 19:57 49.94723 3.39523 24174 ft 484 kts 223°
2026-05-08 19:58 49.92395 3.35762 24470 ft 482 kts 233°
2026-05-08 19:58 49.90475 3.31516 24748 ft 481 kts 239°